• en Belgique
  • Liste des pays
  • À 7 jours
  • Température de l'eau
  • Carte satellitaire
  • Carte météo
  • Widgets météo
  • user-avatar
    Se connecter

    Météo par heure à Kalgoorlie

    Ce jour, 22 Avril, Dimanche

    Heure Température Précipitation Vent Pression Humidité
    00:00 +25°C° 0,1 mm 2 m/s 730 mmHg 41%
    01:00 +24°C° 0,1 mm 3 m/s 730 mmHg 43%
    02:00 +24°C° 0 mm 3 m/s 729 mmHg 44%
    03:00 +23°C° 0,2 mm 4 m/s 729 mmHg 46%
    04:00 +23°C° 0,2 mm 4 m/s 729 mmHg 48%
    05:00 +22°C° 0,2 mm 5 m/s 729 mmHg 50%
    06:00 +23°C° 0,1 mm 5 m/s 729 mmHg 47%
    07:00 +24°C° 0,1 mm 6 m/s 729 mmHg 43%
    08:00 +26°C° 0 mm 8 m/s 729 mmHg 39%
    09:00 +27°C° 0 mm 8 m/s 729 mmHg 36%
    10:00 +28°C° 0 mm 9 m/s 728 mmHg 33%
    11:00 +31°C° 0 mm 9 m/s 728 mmHg 30%
    12:00 +32°C° 0 mm 9 m/s 728 mmHg 28%
    13:00 +33°C° 0 mm 8 m/s 727 mmHg 26%
    14:00 +34°C° 0 mm 8 m/s 727 mmHg 24%
    15:00 +32°C° 0,1 mm 8 m/s 727 mmHg 29%
    16:00 +29°C° 0,1 mm 8 m/s 728 mmHg 34%
    17:00 +27°C° 0,1 mm 8 m/s 728 mmHg 39%
    18:00 +26°C° 0,3 mm 7 m/s 728 mmHg 43%
    19:00 +24°C° 0,3 mm 6 m/s 728 mmHg 47%
    20:00 +23°C° 0,3 mm 5 m/s 729 mmHg 51%
    21:00 +23°C° 0 mm 6 m/s 729 mmHg 51%
    22:00 +23°C° 0 mm 6 m/s 728 mmHg 51%
    23:00 +23°C° 0 mm 6 m/s 728 mmHg 50%

    Demain, 23 Avril, Lundi

    Heure Température Précipitation Vent Pression Humidité
    00:00 +22°C° 0 mm 6 m/s 728 mmHg 52%
    01:00 +21°C° 0 mm 5 m/s 728 mmHg 54%
    02:00 +21°C° 0 mm 5 m/s 728 mmHg 56%
    03:00 +20°C° 0 mm 5 m/s 728 mmHg 62%
    04:00 +19°C° 0 mm 4 m/s 729 mmHg 68%
    05:00 +19°C° 0 mm 4 m/s 729 mmHg 74%
    06:00 +19°C° 0 mm 4 m/s 729 mmHg 73%
    07:00 +19°C° 0 mm 5 m/s 730 mmHg 72%
    08:00 +19°C° 0 mm 6 m/s 730 mmHg 71%
    09:00 +20°C° 0 mm 6 m/s 730 mmHg 60%
    10:00 +22°C° 0 mm 6 m/s 730 mmHg 49%
    11:00 +23°C° 0 mm 6 m/s 730 mmHg 38%
    12:00 +24°C° 0 mm 6 m/s 730 mmHg 34%
    13:00 +26°C° 0 mm 6 m/s 730 mmHg 30%
    14:00 +27°C° 0 mm 6 m/s 729 mmHg 26%
    15:00 +27°C° 0 mm 6 m/s 730 mmHg 27%
    16:00 +26°C° 0 mm 5 m/s 730 mmHg 29%
    17:00 +26°C° 0 mm 5 m/s 730 mmHg 30%
    18:00 +23°C° 0 mm 5 m/s 730 mmHg 35%
    19:00 +22°C° 0 mm 4 m/s 731 mmHg 40%
    20:00 +21°C° 0 mm 4 m/s 731 mmHg 46%
    21:00 +20°C° 0 mm 4 m/s 731 mmHg 49%
    22:00 +20°C° 0 mm 4 m/s 731 mmHg 52%
    23:00 +19°C° 0 mm 3 m/s 731 mmHg 55%

    Après-demain, 24 Avril, Mardi

    Heure Température Précipitation Vent Pression Humidité
    00:00 +18°C° 0 mm 3 m/s 731 mmHg 57%
    01:00 +18°C° 0 mm 3 m/s 731 mmHg 59%
    02:00 +17°C° 0 mm 2 m/s 731 mmHg 60%
    03:00 +17°C° 0 mm 2 m/s 731 mmHg 62%
    04:00 +16°C° 0 mm 3 m/s 731 mmHg 63%
    05:00 +16°C° 0 mm 3 m/s 731 mmHg 65%
    06:00 +16°C° 0 mm 3 m/s 732 mmHg 63%
    07:00 +17°C° 0 mm 3 m/s 732 mmHg 61%
    08:00 +18°C° 0 mm 3 m/s 732 mmHg 60%
    09:00 +19°C° 0 mm 3 m/s 732 mmHg 55%
    10:00 +21°C° 0 mm 2 m/s 732 mmHg 50%
    11:00 +23°C° 0 mm 2 m/s 732 mmHg 45%
    12:00 +24°C° 0 mm 1 m/s 732 mmHg 41%
    13:00 +25°C° 0 mm 1 m/s 731 mmHg 36%
    14:00 +25°C° 0 mm 1 m/s 731 mmHg 32%
    15:00 +25°C° 0 mm 1 m/s 731 mmHg 31%
    16:00 +25°C° 0 mm 1 m/s 731 mmHg 30%
    17:00 +25°C° 0 mm 1 m/s 731 mmHg 29%
    18:00 +25°C° 0 mm 1 m/s 731 mmHg 31%
    19:00 +24°C° 0 mm 2 m/s 731 mmHg 33%
    20:00 +23°C° 0 mm 2 m/s 731 mmHg 35%
    21:00 +21°C° 0 mm 3 m/s 732 mmHg 38%
    22:00 +20°C° 0 mm 3 m/s 732 mmHg 40%
    23:00 +20°C° 0 mm 4 m/s 732 mmHg 43%

    25 Avril, Mercredi

    Heure Température Précipitation Vent Pression Humidité
    00:00 +19°C° 0 mm 4 m/s 732 mmHg 47%
    01:00 +18°C° 0 mm 4 m/s 732 mmHg 51%
    02:00 +18°C° 0 mm 4 m/s 731 mmHg 55%
    03:00 +17°C° 0 mm 4 m/s 732 mmHg 59%
    04:00 +17°C° 0 mm 4 m/s 732 mmHg 63%
    05:00 +15°C° 0 mm 5 m/s 732 mmHg 68%
    06:00 +15°C° 0 mm 5 m/s 732 mmHg 68%
    07:00 +16°C° 0 mm 5 m/s 733 mmHg 69%
    08:00 +16°C° 0 mm 6 m/s 733 mmHg 70%
    09:00 +19°C° 0 mm 6 m/s 733 mmHg 63%
    10:00 +21°C° 0 mm 6 m/s 733 mmHg 56%
    11:00 +23°C° 0 mm 6 m/s 733 mmHg 48%
    12:00 +24°C° 0 mm 6 m/s 732 mmHg 44%
    13:00 +26°C° 0 mm 6 m/s 732 mmHg 40%
    14:00 +27°C° 0 mm 5 m/s 731 mmHg 36%
    15:00 +26°C° 0 mm 5 m/s 731 mmHg 37%
    16:00 +26°C° 0 mm 5 m/s 731 mmHg 38%
    17:00 +26°C° 0 mm 5 m/s 731 mmHg 38%
    18:00 +24°C° 0 mm 6 m/s 732 mmHg 40%
    19:00 +23°C° 0 mm 6 m/s 732 mmHg 42%
    20:00 +23°C° 0 mm 6 m/s 733 mmHg 43%
    21:00 +22°C° 0 mm 7 m/s 733 mmHg 45%
    22:00 +21°C° 0 mm 7 m/s 733 mmHg 47%
    23:00 +20°C° 0 mm 8 m/s 733 mmHg 49%

    26 Avril, Jeudi

    Heure Température Précipitation Vent Pression Humidité
    00:00 +20°C° 0 mm 7 m/s 733 mmHg 51%
    01:00 +18°C° 0 mm 7 m/s 733 mmHg 52%
    02:00 +18°C° 0 mm 7 m/s 732 mmHg 54%
    03:00 +17°C° 0 mm 7 m/s 733 mmHg 57%
    04:00 +17°C° 0 mm 7 m/s 733 mmHg 61%
    05:00 +17°C° 0 mm 7 m/s 733 mmHg 64%
    06:00 +17°C° 0 mm 7 m/s 733 mmHg 64%
    07:00 +17°C° 0 mm 8 m/s 733 mmHg 63%
    08:00 +18°C° 0 mm 8 m/s 734 mmHg 62%
    09:00 +20°C° 0 mm 8 m/s 734 mmHg 57%
    10:00 +22°C° 0 mm 8 m/s 733 mmHg 52%
    11:00 +23°C° 0 mm 8 m/s 733 mmHg 47%
    12:00 +24°C° 0 mm 8 m/s 732 mmHg 45%
    13:00 +26°C° 0 mm 8 m/s 732 mmHg 43%
    14:00 +27°C° 0 mm 8 m/s 731 mmHg 41%
    15:00 +27°C° 0 mm 7 m/s 731 mmHg 42%
    16:00 +26°C° 0 mm 7 m/s 731 mmHg 44%
    17:00 +26°C° 0 mm 7 m/s 732 mmHg 45%
    18:00 +24°C° 0 mm 6 m/s 732 mmHg 47%
    19:00 +23°C° 0 mm 6 m/s 732 mmHg 49%
    20:00 +22°C° 0 mm 6 m/s 732 mmHg 52%
    21:00 +22°C° 0 mm 6 m/s 732 mmHg 53%
    22:00 +22°C° 0 mm 6 m/s 732 mmHg 55%
    23:00 +21°C° 0 mm 6 m/s 732 mmHg 57%

    27 Avril, Vendredi

    Heure Température Précipitation Vent Pression Humidité
    00:00 +21°C° 0 mm 6 m/s 732 mmHg 58%
    01:00 +21°C° 0 mm 5 m/s 732 mmHg 59%
    02:00 +20°C° 0 mm 5 m/s 732 mmHg 60%
    03:00 +20°C° 0 mm 5 m/s 732 mmHg 61%
    04:00 +20°C° 0 mm 5 m/s 732 mmHg 62%
    05:00 +20°C° 0 mm 5 m/s 732 mmHg 63%
    06:00 +21°C° 0 mm 5 m/s 732 mmHg 61%
    07:00 +21°C° 0 mm 6 m/s 732 mmHg 60%
    08:00 +22°C° 0 mm 6 m/s 733 mmHg 58%
    09:00 +24°C° 0,1 mm 7 m/s 732 mmHg 52%
    10:00 +27°C° 0,1 mm 7 m/s 732 mmHg 46%
    11:00 +29°C° 0,1 mm 7 m/s 732 mmHg 40%
    12:00 +30°C° 0 mm 7 m/s 732 mmHg 36%
    13:00 +32°C° 0 mm 6 m/s 731 mmHg 33%
    14:00 +33°C° 0 mm 6 m/s 731 mmHg 30%
    15:00 +33°C° 0 mm 5 m/s 731 mmHg 30%
    16:00 +32°C° 0 mm 4 m/s 731 mmHg 30%
    17:00 +31°C° 0 mm 3 m/s 731 mmHg 30%
    18:00 +30°C° 0 mm 3 m/s 731 mmHg 32%
    19:00 +29°C° 0 mm 3 m/s 732 mmHg 34%
    20:00 +28°C° 0 mm 3 m/s 732 mmHg 36%
    21:00 +27°C° 0,1 mm 3 m/s 732 mmHg 41%
    22:00 +26°C° 0,1 mm 4 m/s 732 mmHg 45%
    23:00 +25°C° 0,1 mm 4 m/s 732 mmHg 50%
    Voir plus